64P/Swift-Gehrels (2018)

Japanese version
Home page
Updated on November 25, 2018

---------------------------------------------------------------------

* Profile

* Pictures

* Orbital Elements

Epoch 2018 Nov. 18.0 TT = JDT 2458440.5
T 2018 Nov. 3.89469 TT                                  MPCW
q   1.3931901            (2000.0)            P               Q
n   0.10470608     Peri.   97.15130     +0.78661189     -0.60257276
a   4.4581511      Node   299.99735     +0.48712092     +0.73969650
e   0.6874960      Incl.    8.94869     +0.37941396     +0.29959165
P   9.41
From 291 observations 1991 Jan. 7-2018 Aug. 11, mean residual 0".6.
     Nongravitational parameters A1 = -0.09, A2 = +0.0494.

* Finding Charts

* Magnitudes Graph

        m1 = 13.0 + 5 log d + 15.0 log r  [   ,-82]  (             - 2018 Aug. 13)
        m1 =  6.0 + 5 log d + 33.0 log r  [-82,   ]  (2018 Aug. 13 -             )

---------------------------------------------------------------------

The orbital elements are published on M.P.E.C. 2018-P89.
The charts are made with StellaNavigator Ver.8 (AstroArts).
The magnitudes graphs are made with Comet for Windows.

---------------------------------------------------------------------

Copyright(C) Seiichi Yoshida (comet@aerith.net). All rights reserved.